GFSNIL_sfc_wetblb_057.txt.gz
Wetbulb
47.28 47.75 47.93 48.30 49.10 48.85 48.69 48.98 48.54 48.77 49.63 50.58 52.42 54.79 55.84 56.00 56.15 55.99 55.70 54.68 55.34 54.99
45.32 45.71 45.10 45.16 46.37 46.62 45.89 47.68 46.48 46.87 47.38 47.75 48.72 49.98 52.22 54.28 53.92 53.62 54.22 54.04 54.96 55.14
42.46 42.24 41.91 41.71 41.14 41.81 41.60 42.33 42.89 43.39 44.11 44.32 44.74 45.99 47.54 47.58 47.95 49.00 49.85 48.33 49.79 48.52
40.38 40.42 40.10 39.66 39.59 39.73 39.77 39.76 40.06 40.41 40.39 40.85 41.10 41.67 42.30 42.50 42.93 43.35 42.14 41.94 42.45 41.94
39.09 39.02 38.50 38.19 38.49 38.85 38.21 38.44 38.51 38.94 39.04 39.13 39.28 39.40 39.42 39.50 39.55 39.57 39.19 39.51 41.35 40.13
37.64 37.31 37.13 37.29 37.99 38.12 37.66 37.49 37.87 38.13 38.11 38.06 38.58 38.75 39.45 39.05 38.78 38.67 39.30 39.39 39.23 39.02
36.52 36.63 38.20 38.51 37.41 37.63 37.48 37.26 37.32 37.88 38.10 38.32 38.09 37.59 37.67 37.31 37.09 37.26 37.52 37.89 37.30 37.66
37.34 39.53 39.39 39.01 38.93 38.80 38.88 39.01 37.24 37.69 38.70 38.97 38.50 38.12 35.17 35.93 35.52 35.88 35.71 35.96 36.79 38.55
38.23 38.45 37.95 37.79 37.57 37.41 37.32 37.66 38.22 38.63 38.87 38.69 39.22 39.63 38.75 36.83 35.19 35.09 34.48 33.73 33.97 35.70
37.92 37.24 37.17 37.05 36.50 35.84 35.98 36.52 36.41 37.04 37.96 37.91 38.75 39.03 37.90 36.60 33.04 32.33 31.78 30.70 31.59 30.30
36.85 36.49 36.57 36.01 35.38 35.08 34.98 34.31 33.83 34.81 35.64 35.88 37.32 38.11 36.86 34.43 28.23 23.57 21.06 21.68 21.77 22.59
36.46 35.95 35.55 34.55 34.04 34.17 33.67 32.97 32.13 30.80 27.06 23.85 26.87 35.44 34.21 27.45 20.73 21.35 22.00 24.62 25.47 25.75
36.71 35.88 34.36 33.77 33.12 33.18 32.29 28.15 25.10 23.40 19.77 32.12 23.01 35.18 33.54 27.93 25.13 22.16 24.52 22.87 23.95 31.00
36.25 35.05 34.23 33.42 32.69 30.69 26.35 25.91 25.76 27.19 23.35 25.35 28.00 27.82 34.06 32.80 26.08 24.43 24.45 24.50 23.95 25.90

GFSNIL_sfc_wetblb_060.txt.gz
Wetbulb
46.71 47.29 47.38 47.43 47.77 46.96 47.25 47.52 46.89 47.25 48.04 48.33 49.42 50.60 54.85 57.50 57.99 57.45 56.72 55.99 55.81 55.50
43.58 43.91 43.62 43.59 44.49 44.21 43.33 45.49 44.04 44.64 44.68 45.00 45.84 47.70 49.84 53.50 53.08 54.14 53.53 53.44 53.95 53.94
40.97 41.07 40.90 40.77 40.15 40.26 40.04 40.65 41.01 41.16 41.46 42.06 42.47 43.71 44.86 45.07 47.95 49.04 47.39 48.08 47.74 46.78
39.46 39.48 39.15 38.79 38.60 38.61 38.69 38.73 39.17 39.51 39.53 39.67 39.85 40.38 41.05 40.99 41.52 41.48 41.54 42.08 40.60 39.64
38.37 38.04 37.36 37.21 37.55 37.85 37.19 37.67 37.72 38.43 38.32 38.41 38.47 38.42 38.33 38.16 38.22 38.16 37.86 38.20 38.36 38.29
36.53 36.28 36.02 36.25 36.82 37.20 36.88 36.96 37.51 37.76 37.53 37.12 37.36 37.47 37.95 37.98 37.25 36.79 37.34 38.13 38.46 38.43
35.77 36.29 39.20 38.78 38.18 38.55 37.42 36.37 36.64 37.01 37.17 37.77 36.14 35.98 36.99 37.28 37.25 37.56 37.63 38.60 39.02 37.22
36.98 39.59 39.42 39.05 38.87 38.97 39.00 38.69 39.00 38.83 38.67 38.65 38.59 37.60 36.27 36.68 36.62 36.42 35.87 36.17 37.48 38.68
38.53 38.62 38.14 37.95 37.69 37.63 37.63 38.08 38.69 38.69 38.76 38.38 38.55 39.84 39.58 36.79 34.96 34.35 34.14 33.70 33.86 34.55
38.18 37.43 37.29 37.09 36.54 36.37 36.14 36.69 36.73 37.38 37.93 37.99 38.12 38.49 37.67 36.03 32.18 28.73 26.96 28.07 26.48 28.06
37.24 36.85 36.56 36.13 35.55 35.15 35.09 34.79 33.96 33.97 33.56 33.45 36.07 37.11 35.88 33.04 22.00 18.95 17.94 18.69 19.73 21.53
36.78 36.09 35.72 34.70 34.30 34.33 33.89 32.57 31.42 28.24 24.70 23.69 26.76 35.17 33.75 27.01 20.01 20.22 20.89 24.05 25.19 26.53
36.83 35.99 34.53 34.08 33.25 33.33 32.80 30.13 25.73 23.90 19.45 31.70 22.08 34.52 33.04 27.47 24.36 21.18 24.25 22.56 24.43 31.90
36.69 35.47 34.11 33.19 32.83 30.26 27.35 24.05 22.68 26.24 22.10 24.33 27.01 26.65 34.03 32.63 25.61 24.71 24.81 24.97 24.40 26.11

GFSNIL_sfc_wetblb_063.txt.gz
Wetbulb
49.98 50.47 50.51 50.52 50.86 49.66 49.74 49.25 48.44 49.15 49.46 49.29 50.09 51.85 54.86 57.89 58.54 58.85 58.32 57.77 57.69 57.79
47.10 47.32 46.81 46.33 47.18 46.23 45.43 46.48 45.62 46.09 46.56 46.72 47.48 49.02 51.33 53.13 53.82 54.57 53.97 54.51 55.89 54.67
44.27 44.20 44.03 43.96 43.30 43.17 43.20 43.39 43.81 43.91 44.13 44.47 45.00 46.26 47.35 48.54 49.75 49.23 49.22 49.79 49.30 48.11
42.71 42.20 41.94 41.78 41.55 41.51 41.53 41.61 41.98 42.20 42.37 42.51 42.73 43.53 44.71 44.78 45.05 45.21 44.71 44.34 43.93 43.26
41.35 40.95 40.55 40.30 40.24 40.52 40.30 40.60 40.78 40.95 40.74 40.82 41.04 41.61 42.19 41.74 41.69 41.89 41.95 41.94 42.33 42.09
39.74 39.72 39.52 39.38 39.60 39.73 39.88 39.98 40.27 40.16 39.37 38.90 39.26 39.95 40.53 40.62 40.30 40.10 40.41 40.31 40.10 40.10
39.07 39.46 40.20 39.61 39.92 39.94 39.42 39.24 39.35 39.58 39.58 38.50 38.09 38.62 39.01 39.23 38.82 38.81 39.11 39.99 39.65 38.83
39.12 40.80 40.48 39.86 39.63 39.76 39.77 39.75 39.91 39.35 39.28 39.41 38.88 38.07 37.87 38.14 37.61 37.28 36.93 37.52 38.02 39.67
39.61 39.79 39.36 39.17 38.81 38.60 38.68 39.06 39.37 39.14 39.01 38.47 38.98 40.38 39.95 37.34 35.98 36.14 35.98 34.52 34.37 34.73
39.21 38.38 38.18 37.92 37.48 37.23 37.21 37.84 37.98 38.41 38.42 37.43 37.99 38.98 38.67 36.10 32.85 31.79 31.51 31.25 31.79 31.93
38.43 37.69 37.34 36.82 36.40 35.96 36.37 36.04 35.09 35.48 36.30 36.96 37.36 37.45 35.50 32.67 28.76 27.81 27.48 28.33 29.26 31.33
37.78 36.90 36.47 35.64 35.13 35.21 34.96 33.69 32.78 30.98 30.71 31.39 34.46 35.34 34.16 29.83 28.39 27.71 27.80 28.88 30.43 31.78
37.62 36.76 35.59 35.27 34.44 34.24 33.91 31.65 30.43 29.15 28.43 32.71 30.90 34.66 33.38 29.66 28.00 27.12 27.62 28.01 29.15 33.08
37.27 36.30 35.11 34.28 33.94 32.62 30.91 28.86 28.47 29.04 28.36 29.32 30.47 31.39 34.85 32.03 28.58 28.43 27.98 28.22 28.42 29.82

GFSNIL_sfc_wetblb_069.txt.gz
Wetbulb
56.40 56.35 56.20 55.92 55.95 55.78 55.31 55.44 54.27 53.75 53.87 53.72 53.52 53.81 54.57 56.01 57.60 57.53 57.41 58.72 59.69 59.44
55.08 54.91 54.62 54.19 54.53 54.09 53.10 52.09 51.50 51.81 51.40 51.88 51.68 51.91 52.51 53.40 55.24 56.16 56.23 56.23 55.93 55.39
52.50 52.24 52.07 52.03 51.61 51.21 51.10 50.33 50.10 50.24 50.13 50.03 50.08 50.24 50.82 51.84 53.27 53.32 53.93 51.97 51.45 50.43
51.05 50.65 50.47 50.28 49.86 49.40 48.93 48.73 48.28 48.40 48.24 48.20 48.11 48.64 48.84 49.62 49.38 50.21 50.79 50.22 49.29 47.42
50.21 49.48 49.06 48.92 48.46 48.18 47.62 47.61 46.93 46.82 46.50 46.55 46.44 46.86 47.03 47.07 47.33 47.55 47.89 47.61 47.73 46.35
48.60 48.15 47.97 47.49 46.95 46.63 46.56 46.69 46.57 45.85 45.55 45.10 44.95 45.23 45.92 46.09 46.10 45.97 45.54 44.89 44.14 43.82
46.94 46.79 46.70 46.06 45.18 44.86 45.02 44.99 45.11 44.97 44.40 43.67 43.23 43.29 43.97 44.22 43.97 43.51 42.81 42.39 42.32 42.12
46.39 46.01 45.09 43.89 43.48 43.37 43.03 43.36 43.26 42.73 42.31 42.37 41.93 41.35 41.69 41.78 41.41 40.76 39.29 38.96 39.95 41.44
45.64 45.39 44.96 43.99 43.13 42.50 41.72 41.41 41.12 40.90 40.70 40.73 40.62 40.64 40.44 40.94 39.54 38.83 37.73 36.22 36.65 37.63
45.25 44.41 43.83 42.86 41.87 41.05 40.43 40.36 39.98 39.75 39.37 39.64 40.21 40.67 39.94 39.84 38.39 36.75 35.96 36.56 36.82 35.92
44.65 43.78 42.85 41.23 40.19 40.11 39.49 39.04 38.09 38.98 39.15 38.81 38.76 38.77 37.78 36.95 34.74 33.22 33.56 34.52 34.84 34.92
43.98 42.65 41.13 39.37 39.22 38.99 38.05 36.64 36.02 36.71 36.55 37.13 37.01 36.65 35.49 34.46 33.87 33.01 32.48 32.76 33.79 34.75
43.31 41.94 40.12 39.32 38.65 36.56 36.68 34.73 34.16 34.27 36.35 36.56 35.66 35.55 34.10 33.31 31.93 30.82 30.06 30.58 32.89 33.87
42.13 40.90 40.18 38.88 37.34 35.05 33.71 33.34 34.41 34.57 34.24 34.63 35.26 35.05 34.88 33.37 30.71 30.21 29.72 29.69 29.62 31.23

GFSNIL_sfc_wetblb_072.txt.gz
Wetbulb
53.77 52.35 52.97 53.21 52.25 51.58 50.90 50.73 50.12 50.13 50.30 50.43 50.50 50.50 50.96 51.54 52.82 54.33 53.88 55.21 56.32 56.15
52.51 52.25 51.58 50.92 50.51 49.42 48.86 48.78 47.29 48.34 48.09 48.25 48.46 48.60 48.75 48.95 50.28 51.73 52.17 53.76 53.40 53.30
50.05 50.02 49.74 48.92 48.13 47.92 47.21 47.20 46.53 46.67 46.52 46.48 46.57 46.81 46.63 47.35 48.77 48.75 50.11 50.70 48.89 48.96
47.97 47.87 47.88 47.47 46.77 46.19 45.64 45.42 44.82 45.13 44.94 44.79 44.37 44.59 44.39 44.96 44.99 45.72 47.53 47.93 47.53 45.86
47.30 46.78 46.17 46.16 45.53 45.32 44.33 44.59 43.80 43.83 43.90 43.81 43.66 43.23 43.02 43.30 43.97 43.86 44.28 44.38 45.82 44.95
45.56 45.49 44.94 44.58 44.63 44.51 43.79 43.46 43.39 43.41 42.76 42.28 42.40 42.27 42.59 42.57 42.56 41.93 40.99 41.08 41.58 42.32
43.59 43.53 43.34 43.58 43.14 42.80 42.65 42.24 42.22 42.07 41.67 41.61 40.84 40.97 41.17 41.71 40.95 41.05 40.60 40.01 40.79 41.55
42.62 42.66 42.02 41.29 41.10 41.61 41.33 41.33 40.91 40.58 41.19 41.59 40.40 41.03 40.82 41.42 40.90 39.73 37.61 38.51 40.33 40.81
43.01 42.67 41.66 40.98 40.25 39.95 39.00 38.78 40.49 40.63 40.56 40.48 40.57 40.86 40.94 41.07 39.36 38.46 37.16 36.07 36.40 37.57
42.81 41.94 41.17 40.79 41.39 40.63 40.01 38.30 39.05 39.48 39.22 39.26 40.10 41.26 40.81 40.59 38.16 36.45 35.66 35.51 34.92 34.35
42.35 41.40 40.56 40.86 40.17 39.45 39.31 37.08 37.95 38.42 38.61 38.50 39.08 39.57 39.22 37.88 33.76 32.72 32.78 32.60 31.24 32.00
41.63 40.46 39.42 39.32 38.97 38.77 37.75 36.66 36.69 37.22 36.40 35.88 36.44 37.71 37.87 33.34 28.79 28.14 28.31 30.46 31.27 31.84
41.11 39.89 37.90 39.14 38.36 36.71 36.58 35.38 34.65 34.10 34.53 37.37 34.41 36.99 35.49 32.91 29.65 28.20 27.47 28.04 30.24 34.53
40.07 38.90 38.68 38.36 37.21 34.90 33.70 33.39 33.15 33.45 33.64 32.83 33.25 32.57 35.76 34.51 27.72 26.58 26.58 26.37 26.19 29.59

GFSNIL_sfc_wetblb_075.txt.gz
Wetbulb
52.09 52.10 51.57 51.51 51.47 51.56 50.63 50.47 50.03 49.82 49.52 49.22 49.38 49.05 49.14 49.50 50.08 51.22 52.16 52.00 52.44 54.02
52.04 52.01 51.62 51.46 49.91 48.79 48.59 48.16 47.22 47.72 47.63 47.64 47.23 47.23 47.02 47.30 47.86 49.25 49.95 50.68 50.66 52.31
50.36 50.39 49.54 48.64 48.51 48.02 46.43 46.66 46.13 45.75 45.59 45.54 45.51 45.41 45.00 45.03 46.86 46.73 47.54 48.80 48.15 49.21
48.40 48.18 47.93 46.99 46.63 45.76 44.81 44.76 44.74 44.60 44.28 43.99 43.72 43.41 43.05 43.20 44.21 44.14 44.93 46.33 46.63 46.34
46.44 45.71 44.93 44.89 44.80 44.76 43.52 43.62 43.69 43.62 43.25 43.31 42.88 42.32 42.02 42.06 42.64 42.71 42.96 43.58 43.85 45.03
44.08 43.85 43.63 42.97 42.88 43.28 42.81 42.96 43.35 43.20 42.24 41.55 41.53 41.21 41.29 41.62 41.50 40.69 40.10 40.26 41.28 41.03
42.75 42.59 42.05 41.76 41.59 41.43 41.33 41.16 40.94 40.81 41.20 40.74 40.25 40.39 40.41 40.75 40.06 39.65 39.27 39.44 39.77 40.61
42.07 41.77 41.15 40.63 40.31 40.33 40.02 40.10 40.05 39.75 39.80 40.26 40.32 40.22 39.09 40.92 40.92 39.72 38.32 37.49 39.89 40.92
41.64 41.26 40.46 39.79 39.38 38.79 38.12 37.71 38.10 38.30 39.35 40.45 40.55 41.24 41.35 41.44 39.82 38.56 37.47 36.93 37.14 38.58
41.81 40.98 40.09 39.64 39.15 38.60 38.87 39.50 36.17 36.68 37.47 39.31 40.16 41.74 41.28 41.15 38.41 37.08 36.12 35.41 34.84 34.63
41.40 40.50 39.69 38.93 38.29 38.33 39.47 38.71 37.64 38.39 38.52 38.63 39.91 40.70 40.62 39.26 35.01 33.81 33.47 33.77 33.34 30.10
41.01 39.84 38.71 37.54 36.80 38.87 38.42 37.62 37.22 37.79 36.87 36.45 37.61 39.54 39.56 34.90 31.87 31.13 29.95 29.56 30.30 30.43
40.68 39.48 37.39 36.75 36.25 37.60 37.63 36.43 35.77 34.62 35.44 37.85 35.45 38.63 38.39 33.31 29.12 26.56 28.15 27.86 30.16 35.55
39.81 38.54 37.14 35.80 36.42 35.92 34.31 34.13 33.69 34.13 34.58 34.86 34.97 34.32 37.33 35.95 28.16 27.34 25.87 26.08 27.08 29.80